Stündliche Wetter Graz

Heute, 20 April, Dienstag

Zeit Temperatur Niederschläge Wind Luftdruck Luftfeuchtigkeit
00:00 +5°C° 0 mm 1 m/S 722 mmHg 91%
01:00 +5°C° 0 mm 1 m/S 722 mmHg 91%
02:00 +5°C° 0 mm 1 m/S 722 mmHg 91%
03:00 +5°C° 0 mm 1 m/S 722 mmHg 91%
04:00 +5°C° 0 mm 1 m/S 722 mmHg 92%
05:00 +5°C° 0.2 mm 1 m/S 722 mmHg 90%
06:00 +6°C° 0.2 mm 1 m/S 722 mmHg 89%
07:00 +7°C° 0.2 mm 1 m/S 722 mmHg 88%
08:00 +7°C° 0.8 mm 1 m/S 723 mmHg 89%
09:00 +7°C° 0.8 mm 1 m/S 723 mmHg 90%
10:00 +8°C° 0.8 mm 1 m/S 723 mmHg 90%
11:00 +8°C° 0.6 mm 1 m/S 723 mmHg 89%
12:00 +9°C° 0.6 mm 1 m/S 723 mmHg 87%
13:00 +9°C° 0.6 mm 1 m/S 723 mmHg 86%
14:00 +10°C° 0.1 mm 1 m/S 722 mmHg 79%
15:00 +11°C° 0.1 mm 1 m/S 722 mmHg 72%
16:00 +12°C° 0.1 mm 1 m/S 722 mmHg 65%
17:00 +11°C° 0.1 mm 1 m/S 722 mmHg 73%
18:00 +9°C° 0.1 mm 1 m/S 722 mmHg 81%
19:00 +7°C° 0.1 mm 1 m/S 722 mmHg 88%
20:00 +7°C° 0 mm 1 m/S 723 mmHg 89%
21:00 +6°C° 0 mm 1 m/S 723 mmHg 90%
22:00 +4°C° 0 mm 2 m/S 723 mmHg 91%
23:00 +4°C° 0 mm 2 m/S 723 mmHg 90%

Morgen, 21 April, Mittwoch

Zeit Temperatur Niederschläge Wind Luftdruck Luftfeuchtigkeit
00:00 +4°C° 0 mm 2 m/S 723 mmHg 89%
01:00 +3°C° 0 mm 2 m/S 723 mmHg 89%
02:00 +3°C° 0 mm 2 m/S 723 mmHg 88%
03:00 +3°C° 0 mm 2 m/S 723 mmHg 87%
04:00 +3°C° 0 mm 2 m/S 723 mmHg 87%
05:00 +5°C° 0 mm 1 m/S 723 mmHg 82%
06:00 +7°C° 0 mm 1 m/S 723 mmHg 76%
07:00 +8°C° 0 mm 1 m/S 723 mmHg 71%
08:00 +11°C° 0 mm 1 m/S 723 mmHg 63%
09:00 +13°C° 0 mm 1 m/S 723 mmHg 54%
10:00 +15°C° 0 mm 1 m/S 723 mmHg 46%
11:00 +16°C° 0 mm 1 m/S 723 mmHg 43%
12:00 +18°C° 0 mm 1 m/S 722 mmHg 41%
13:00 +18°C° 0 mm 2 m/S 722 mmHg 38%
14:00 +18°C° 0.1 mm 2 m/S 722 mmHg 39%
15:00 +17°C° 0.1 mm 2 m/S 721 mmHg 40%
16:00 +17°C° 0.1 mm 2 m/S 721 mmHg 40%
17:00 +15°C° 0.2 mm 2 m/S 721 mmHg 54%
18:00 +13°C° 0.2 mm 2 m/S 722 mmHg 67%
19:00 +9°C° 0.2 mm 2 m/S 722 mmHg 80%
20:00 +9°C° 0 mm 2 m/S 722 mmHg 82%
21:00 +8°C° 0 mm 2 m/S 722 mmHg 84%
22:00 +7°C° 0 mm 2 m/S 722 mmHg 86%
23:00 +7°C° 0 mm 2 m/S 723 mmHg 87%

übermorgen, 22 April, Donnerstag

Zeit Temperatur Niederschläge Wind Luftdruck Luftfeuchtigkeit
00:00 +6°C° 0 mm 2 m/S 723 mmHg 88%
01:00 +6°C° 0 mm 2 m/S 723 mmHg 88%
02:00 +6°C° 0 mm 2 m/S 723 mmHg 89%
03:00 +5°C° 0 mm 2 m/S 723 mmHg 89%
04:00 +5°C° 0 mm 2 m/S 723 mmHg 90%
05:00 +7°C° 0 mm 1 m/S 723 mmHg 86%
06:00 +9°C° 0 mm 1 m/S 723 mmHg 81%
07:00 +10°C° 0 mm 1 m/S 723 mmHg 77%
08:00 +12°C° 0.2 mm 1 m/S 723 mmHg 70%
09:00 +14°C° 0.2 mm 1 m/S 723 mmHg 63%
10:00 +16°C° 0.2 mm 1 m/S 723 mmHg 56%
11:00 +16°C° 0.6 mm 1 m/S 723 mmHg 58%
12:00 +16°C° 0.6 mm 1 m/S 723 mmHg 60%
13:00 +15°C° 0.6 mm 1 m/S 723 mmHg 62%
14:00 +14°C° 1 mm 1 m/S 723 mmHg 70%
15:00 +13°C° 1 mm 2 m/S 723 mmHg 78%
16:00 +12°C° 1 mm 2 m/S 723 mmHg 86%
17:00 +10°C° 1.9 mm 2 m/S 724 mmHg 89%
18:00 +10°C° 1.9 mm 1 m/S 724 mmHg 93%
19:00 +9°C° 1.9 mm 1 m/S 725 mmHg 96%
20:00 +8°C° 0.4 mm 1 m/S 726 mmHg 96%
21:00 +8°C° 0.4 mm 1 m/S 726 mmHg 96%
22:00 +7°C° 0.4 mm 1 m/S 727 mmHg 95%
23:00 +7°C° 0.1 mm 1 m/S 727 mmHg 95%

23 April, Freitag

Zeit Temperatur Niederschläge Wind Luftdruck Luftfeuchtigkeit
00:00 +6°C° 0.1 mm 1 m/S 727 mmHg 95%
01:00 +6°C° 0.1 mm 1 m/S 727 mmHg 95%
02:00 +6°C° 0 mm 1 m/S 727 mmHg 94%
03:00 +5°C° 0 mm 1 m/S 728 mmHg 94%
04:00 +4°C° 0 mm 1 m/S 728 mmHg 94%
05:00 +5°C° 0.1 mm 1 m/S 728 mmHg 91%
06:00 +5°C° 0.1 mm 0 m/S 728 mmHg 88%
07:00 +5°C° 0.1 mm 0 m/S 729 mmHg 85%
08:00 +6°C° 0.1 mm 0 m/S 729 mmHg 81%
09:00 +8°C° 0.1 mm 1 m/S 729 mmHg 77%
10:00 +9°C° 0.1 mm 1 m/S 729 mmHg 73%
11:00 +11°C° 0 mm 1 m/S 728 mmHg 67%
12:00 +12°C° 0 mm 2 m/S 728 mmHg 61%
13:00 +13°C° 0 mm 2 m/S 728 mmHg 56%
14:00 +14°C° 0 mm 2 m/S 727 mmHg 54%
15:00 +14°C° 0 mm 1 m/S 727 mmHg 52%
16:00 +14°C° 0 mm 1 m/S 727 mmHg 50%
17:00 +12°C° 0 mm 1 m/S 727 mmHg 59%
18:00 +11°C° 0 mm 1 m/S 728 mmHg 67%
19:00 +9°C° 0 mm 1 m/S 728 mmHg 76%
20:00 +8°C° 0 mm 1 m/S 729 mmHg 78%
21:00 +7°C° 0 mm 1 m/S 729 mmHg 81%
22:00 +6°C° 0 mm 1 m/S 730 mmHg 84%
23:00 +6°C° 0 mm 1 m/S 730 mmHg 84%

24 April, Samstag

Zeit Temperatur Niederschläge Wind Luftdruck Luftfeuchtigkeit
00:00 +6°C° 0 mm 1 m/S 730 mmHg 85%
01:00 +6°C° 0 mm 1 m/S 730 mmHg 85%
02:00 +6°C° 0 mm 1 m/S 730 mmHg 86%
03:00 +4°C° 0 mm 0 m/S 730 mmHg 87%
04:00 +4°C° 0 mm 0 m/S 730 mmHg 87%
05:00 +5°C° 0 mm 0 m/S 730 mmHg 83%
06:00 +6°C° 0 mm 0 m/S 730 mmHg 79%
07:00 +7°C° 0 mm 0 m/S 730 mmHg 75%
08:00 +9°C° 0 mm 0 m/S 730 mmHg 68%
09:00 +11°C° 0 mm 1 m/S 729 mmHg 60%
10:00 +13°C° 0 mm 1 m/S 729 mmHg 52%
11:00 +14°C° 0 mm 1 m/S 728 mmHg 48%
12:00 +16°C° 0 mm 1 m/S 727 mmHg 44%
13:00 +18°C° 0 mm 1 m/S 727 mmHg 40%
14:00 +17°C° 0 mm 2 m/S 726 mmHg 41%
15:00 +17°C° 0 mm 2 m/S 726 mmHg 43%
16:00 +16°C° 0 mm 2 m/S 725 mmHg 44%
17:00 +14°C° 0 mm 2 m/S 726 mmHg 54%
18:00 +12°C° 0 mm 1 m/S 726 mmHg 65%
19:00 +10°C° 0 mm 1 m/S 726 mmHg 75%
20:00 +9°C° 0 mm 1 m/S 726 mmHg 78%
21:00 +9°C° 0 mm 1 m/S 727 mmHg 81%
22:00 +8°C° 0 mm 1 m/S 727 mmHg 84%
23:00 +8°C° 0 mm 1 m/S 727 mmHg 84%

25 April, Sonntag

Zeit Temperatur Niederschläge Wind Luftdruck Luftfeuchtigkeit
00:00 +7°C° 0 mm 1 m/S 727 mmHg 84%
01:00 +7°C° 0 mm 1 m/S 727 mmHg 84%
02:00 +7°C° 0 mm 1 m/S 727 mmHg 84%
03:00 +6°C° 0 mm 1 m/S 727 mmHg 85%
04:00 +6°C° 0 mm 1 m/S 727 mmHg 86%
05:00 +7°C° 0 mm 1 m/S 727 mmHg 80%
06:00 +7°C° 0 mm 0 m/S 727 mmHg 74%
07:00 +8°C° 0 mm 0 m/S 727 mmHg 69%
08:00 +11°C° 0 mm 1 m/S 727 mmHg 62%
09:00 +13°C° 0 mm 1 m/S 727 mmHg 56%
10:00 +14°C° 0 mm 1 m/S 726 mmHg 49%
11:00 +15°C° 0 mm 2 m/S 726 mmHg 47%
12:00 +16°C° 0 mm 2 m/S 725 mmHg 45%
13:00 +16°C° 0 mm 2 m/S 725 mmHg 43%
14:00 +16°C° 0.2 mm 2 m/S 725 mmHg 45%
15:00 +16°C° 0.2 mm 2 m/S 725 mmHg 47%
16:00 +15°C° 0.2 mm 2 m/S 725 mmHg 50%
17:00 +14°C° 0.2 mm 2 m/S 725 mmHg 61%
18:00 +12°C° 0.2 mm 2 m/S 725 mmHg 72%
19:00 +9°C° 0.2 mm 2 m/S 726 mmHg 84%
20:00 +9°C° 0 mm 1 m/S 726 mmHg 84%
21:00 +9°C° 0 mm 1 m/S 727 mmHg 85%
22:00 +8°C° 0 mm 1 m/S 727 mmHg 86%
23:00 +8°C° 0 mm 1 m/S 727 mmHg 85%
Mehr zeigen

Wir brauchen deine Erlaubnis

Meteoprog und unser Service Anbieter werden persönliche Daten aufbewahren, so wie Cookies, Geräte Bezeichnung oder ähnliche Technologien von deinem Gerät und Prozess, so wie Persönliche Daten Inhalte und Werbungen, genauso wie social Media und den Verkehr zu analysieren.

  • Aufbewahrung und/oder Zugang zu deiner Geräte Informationen.

    Cookies, Geräte Bezeichnung oder andere Informationen, können aufbewahrt oder Zugang zu deinem Gerät erhalten, für den Grund, der oben angegeben wird.

  • Personalisierte Werbung und Inhalte, Messungen, Einblick in das Publikum und Produkt Entwicklung.

    Werbungen und Inhalte können personalisiert werden, basierend auf ein Profil. Mehr Daten können besser personalisierte Werbungen und Inhalte hinzufügen. Werbung und Inhalte können gezeigt und gemessen werden. Einblicke über das Publikum, welche die Werbung gesehen haben und den Inhalt, können abgeleitet werden. So wie Daten können genutzt werden, um es zu verbessern oder die Benutzer Erfahrung zu verbessern das System und die Software.

Wenn du “Ich stimme zu” klickst, erlaubst du uns, die Cookies zu benutzen die Geräte Bezeichnung, den Web oder ähnliche Technologien zu benutzen. Deine Settings, können in deinem Gerät bei deinem Browser geändert werden.

Für den bestimmten Zweck, berechtigten Interessen beruhen darauf, mehr als auf den Inhalt. Du kannst mehr darüber in unseren Privaten und Cookie Politik lesen.